Wind_Speed
22 22 23 24 25 26 26 24 24 24 25 25 25 25 25 26 26 27 28 29 29 30 30 30 30 30 29 28 27 26 26 26 25 25 24 24 24 25 25 25 26 26 26 26 25 25 25 25 26 28 29 29 28 28 26 25 26 26 26 26 23 20 18 18 19 19 21 27 32 34 35 36 38 40 40 39 38 39 41 41 41 40 40 40 39
20 19 21 22 23 24 24 24 24 25 26 25 26 26 26 27 26 26 26 26 27 28 29 29 30 29 28 28 27 27 26 26 25 25 25 26 26 26 26 26 26 27 27 26 26 25 25 25 26 27 28 29 29 29 28 26 27 27 25 25 24 20 18 17 18 20 20 21 25 30 34 37 36 38 42 42 40 39 40 42 43 43 43 42 41
20 19 20 21 22 22 23 23 24 26 26 26 27 28 28 28 27 27 26 25 25 25 26 27 28 28 27 27 26 26 26 26 26 26 26 26 26 26 26 27 27 27 28 27 26 25 25 25 26 27 28 28 29 29 29 28 29 28 25 25 24 21 20 18 16 18 20 19 21 25 28 34 36 37 40 43 43 42 42 43 44 45 44 43 42
23 22 22 22 23 22 22 23 24 25 26 27 28 29 29 28 27 26 26 25 25 25 26 26 27 26 25 25 25 25 25 25 26 26 27 27 27 27 26 26 27 27 28 27 27 26 25 25 26 27 28 28 28 29 29 29 29 28 27 26 24 21 21 20 18 18 19 18 21 24 25 29 33 35 37 40 43 45 45 45 46 47 47 45 44
26 25 25 25 24 23 23 22 23 25 26 27 29 30 30 27 26 26 25 25 24 24 25 26 26 25 24 24 24 24 24 25 26 27 27 27 27 27 26 26 27 27 28 28 27 26 25 25 26 27 28 28 28 28 29 29 29 29 29 29 27 25 23 22 21 21 20 19 20 24 24 25 29 32 34 37 39 44 47 49 49 50 50 47 45
29 27 26 26 25 24 23 22 23 24 26 28 30 30 30 28 26 25 25 24 23 23 24 24 24 23 22 23 23 23 24 24 25 26 27 27 27 27 27 27 27 27 27 27 26 26 25 25 25 26 27 27 27 28 28 28 28 28 30 30 30 29 26 24 23 22 21 20 20 22 24 23 26 29 32 34 35 38 43 47 50 51 51 50 49
28 27 25 25 25 24 23 22 23 24 26 29 30 30 30 28 27 26 25 23 22 23 24 23 22 21 20 21 22 22 23 24 25 25 25 26 26 26 27 27 27 27 27 27 26 25 24 24 25 25 26 27 26 27 28 27 27 27 28 30 31 31 30 29 28 25 23 21 20 21 22 22 23 27 29 29 31 34 36 40 46 49 47 47 50
26 26 25 25 26 26 24 24 24 24 27 29 30 30 29 28 27 26 25 23 22 23 23 22 21 20 20 21 21 22 22 23 23 24 24 24 25 25 26 26 26 26 26 26 25 24 23 24 24 25 26 26 26 27 27 27 26 26 27 28 29 31 31 31 31 30 28 26 25 23 24 24 23 24 25 23 26 30 33 34 37 40 39 38 42
26 26 26 26 28 27 26 25 25 25 27 29 29 29 28 27 26 25 23 22 22 23 22 21 21 20 20 20 21 21 21 22 22 22 23 23 24 24 24 25 25 25 25 24 23 23 23 23 24 25 26 26 26 26 26 26 26 25 25 26 27 28 29 30 30 30 29 29 29 28 27 27 26 25 24 22 22 26 29 31 31 32 33 33 34
27 27 27 28 28 27 26 26 25 25 27 28 29 28 27 26 25 23 22 21 21 21 21 21 21 20 20 20 20 20 21 21 21 22 22 23 23 24 24 24 23 23 23 23 22 22 22 22 23 24 25 25 25 25 25 25 25 25 25 25 25 26 27 27 27 28 29 28 30 30 29 29 27 26 25 23 23 23 23 26 29 31 32 33 32
27 27 26 26 26 25 23 22 22 24 26 27 28 28 27 26 25 23 21 20 20 20 20 20 20 20 20 20 20 19 20 20 21 21 22 22 23 23 24 23 23 23 22 22 22 21 21 21 22 23 24 25 25 24 24 24 24 24 24 24 24 24 25 25 25 26 27 27 27 29 30 29 28 28 27 24 24 24 22 22 25 29 31 31 31
23 21 19 20 20 19 17 17 19 21 24 27 28 28 26 24 24 23 21 20 19 19 19 20 20 20 20 20 19 19 19 19 20 21 21 21 22 22 23 23 23 23 22 22 22 21 21 21 21 22 23 24 24 23 23 23 23 23 23 23 23 24 24 24 24 24 25 25 25 27 28 29 28 28 28 26 25 25 24 24 25 27 30 31 31
18 17 15 15 15 14 14 15 18 20 25 28 29 28 24 21 23 23 21 20 20 19 20 20 20 21 21 21 20 19 18 18 19 19 20 21 21 21 22 22 23 22 22 22 21 21 21 21 21 22 22 23 22 22 21 21 21 22 22 23 23 23 23 24 24 23 24 25 25 25 26 27 27 27 27 27 26 26 26 26 27 28 30 32 33
16 16 14 13 14 15 15 16 18 22 26 28 28 27 22 21 23 22 21 20 20 20 20 21 21 21 21 21 21 20 20 19 19 19 19 20 20 21 21 22 22 22 21 21 21 20 20 21 21 21 22 22 22 21 21 20 20 20 21 21 22 22 22 23 23 23 23 23 24 24 24 25 26 25 25 26 25 25 25 26 27 28 29 31 34
15 15 15 15 16 17 17 18 20 23 25 27 27 25 22 21 22 21 20 19 19 19 20 21 22 22 22 23 22 22 22 21 20 19 19 19 20 20 21 21 21 21 21 20 20 20 20 20 20 21 21 21 21 21 20 20 19 19 20 20 21 21 21 22 23 23 23 23 23 24 24 24 25 25 25 25 25 25 25 25 26 27 27 28 30
16 16 16 18 19 19 19 20 22 24 25 27 26 24 22 21 21 21 20 18 18 19 19 20 21 22 23 23 23 23 23 22 22 21 20 19 20 20 21 21 22 21 20 19 19 19 19 19 19 19 20 21 21 21 21 20 20 20 20 20 20 21 21 22 22 23 23 23 23 23 24 24 24 25 25 25 25 26 26 26 26 26 26 26 27
19 19 20 22 23 23 22 21 22 23 24 24 23 23 22 21 21 22 21 20 21 20 19 20 21 21 22 22 22 22 22 22 21 21 21 20 20 20 21 22 22 22 21 20 19 19 19 19 19 19 19 19 20 21 21 21 21 21 21 21 21 22 22 22 22 23 23 24 23 23 24 24 25 25 26 27 27 27 27 27 27 27 27 26 26
21 22 23 24 26 26 26 24 24 25 26 25 24 23 22 22 22 22 23 24 24 22 20 20 21 22 22 21 22 22 23 23 22 21 21 20 20 20 21 22 22 22 22 21 20 19 18 19 19 19 19 19 20 20 21 22 22 23 23 23 23 24 24 25 25 24 24 25 25 25 25 26 27 27 27 28 29 29 29 29 28 28 28 28 27
21 23 25 26 27 28 29 28 27 29 29 29 28 25 22 21 22 21 22 24 24 23 22 22 23 24 24 23 22 22 22 23 23 23 22 22 21 21 21 21 22 23 23 22 22 21 20 20 20 20 20 20 20 21 21 22 22 23 24 25 25 26 26 27 27 27 27 27 28 28 28 28 29 29 30 30 30 31 31 31 31 30 30 30 29
21 23 25 26 27 30 31 31 31 31 31 30 29 27 24 23 22 21 21 23 24 24 24 25 25 25 24 24 24 23 22 22 23 23 23 23 23 22 21 21 21 21 22 23 23 23 23 23 23 23 23 23 23 23 23 23 24 24 25 26 27 27 28 29 29 29 30 30 30 30 30 30 31 31 31 32 32 32 32 33 33 34 33 33 32
23 23 24 26 28 29 30 31 31 31 31 30 30 28 27 26 25 24 24 23 24 26 26 25 26 26 26 27 28 28 27 27 27 26 25 26 25 25 24 22 21 21 20 21 22 23 24 24 24 25 25 26 27 27 27 27 27 27 27 28 29 29 30 31 31 32 32 32 33 33 32 32 33 33 33 34 34 34 34 35 35 35 36 35 35
27 27 26 27 28 29 30 32 32 32 31 31 30 29 30 30 30 30 28 26 26 27 27 25 24 24 26 28 29 30 30 30 30 28 28 28 28 28 27 26 24 24 23 22 22 23 24 25 26 26 26 27 28 28 29 30 30 30 30 31 31 32 32 33 33 34 34 34 35 35 35 35 35 35 35 36 36 37 37 37 37 37 37 37 37
30 30 29 29 29 29 30 31 32 31 32 32 33 33 33 33 33 33 33 31 29 28 28 28 26 25 26 27 28 29 31 32 32 31 30 30 30 30 30 30 29 28 28 27 28 28 27 27 27 28 28 29 29 29 29 29 30 31 31 32 33 34 34 35 35 35 36 36 36 37 37 37 37 37 38 38 38 38 39 39 40 40 40 40 40
32 32 31 31 31 31 31 31 31 31 31 33 36 37 36 35 35 34 35 35 33 32 32 32 31 31 30 30 29 30 32 34 34 34 33 32 32 32 32 32 31 31 31 32 32 31 31 31 29 28 29 30 31 31 30 30 31 31 32 32 33 34 35 36 36 37 37 37 37 38 38 38 39 39 39 39 38 38 38 39 39 40 41 41 41
34 34 34 33 33 34 34 34 34 34 33 34 36 38 38 38 38 38 38 38 37 36 35 35 34 34 34 33 33 34 35 35 35 35 34 33 33 34 33 33 32 32 32 32 32 32 33 34 33 32 31 30 30 31 32 33 33 33 34 34 34 35 36 36 37 37 38 38 38 38 38 37 37 37 37 38 37 37 36 36 37 38 39 40 41
38 36 36 35 35 36 37 37 37 37 36 36 36 39 40 41 42 42 41 42 40 37 36 36 36 36 36 36 36 36 36 36 35 34 34 33 34 36 36 35 35 35 35 35 34 34 34 34 34 35 34 32 31 33 33 34 34 34 35 36 37 37 37 37 37 37 37 37 37 37 37 36 36 35 35 34 33 33 32 33 33 35 36 38 39
43 41 39 38 38 38 39 40 41 41 41 40 40 41 41 41 43 44 43 43 42 40 38 39 39 39 39 39 37 36 35 36 36 36 36 36 37 37 37 37 36 37 37 37 37 37 37 37 37 37 37 34 34 35 36 36 36 36 36 37 38 39 40 39 39 38 38 37 37 37 37 36 35 34 33 31 30 29 29 30 31 32 33 34 35
46 44 43 42 42 42 42 42 43 43 44 43 43 43 43 43 44 45 44 43 42 42 42 43 43 43 42 40 38 36 36 37 38 38 39 39 40 40 39 39 39 39 40 40 40 40 39 40 40 40 39 37 37 37 38 38 37 37 39 39 39 40 42 42 42 41 40 38 38 38 37 37 36 35 33 31 30 30 30 30 30 31 31 32 32
47 47 46 46 46 46 45 45 44 44 44 44 44 45 46 47 47 46 45 44 43 43 44 45 46 46 45 43 41 39 39 39 40 41 41 41 41 41 41 41 41 42 44 43 43 44 44 43 44 42 40 39 39 40 40 40 38 38 40 41 42 42 43 44 44 43 42 41 40 39 39 39 38 36 35 34 33 32 31 31 31 31 31 32 32
48 49 49 50 50 50 50 49 47 46 46 46 46 47 48 49 50 50 50 50 49 49 49 49 49 49 48 47 47 46 45 43 43 43 43 43 42 43 43 44 43 45 47 46 45 46 46 45 45 44 42 42 42 43 43 43 42 42 43 44 44 45 45 45 45 45 45 44 43 42 41 41 40 39 38 36 35 35 34 34 33 33 33 34 34
48 50 51 52 53 53 52 52 52 51 50 49 49 50 50 51 53 54 55 55 55 55 55 54 54 53 53 52 52 51 49 47 45 45 45 44 44 44 44 45 45 47 49 48 46 47 48 47 48 47 47 46 46 46 46 46 44 44 44 45 45 45 45 46 45 46 46 45 44 44 44 44 43 42 41 40 39 37 37 37 36 35 35 36 37
48 49 50 52 53 54 54 54 54 55 55 54 54 55 55 56 57 58 58 59 59 59 58 58 58 57 57 56 56 55 52 49 48 48 47 46 46 45 46 46 47 49 52 51 48 47 47 49 50 49 48 49 49 49 48 46 44 43 42 41 41 42 44 45 45 45 45 45 44 44 45 46 46 45 45 43 42 40 40 39 39 38 38 39 40
49 49 49 50 51 53 54 55 56 56 57 58 58 58 59 59 59 60 60 61 61 61 61 60 60 60 59 59 58 57 55 52 51 50 50 50 50 49 49 49 50 51 53 53 50 48 48 50 51 49 49 50 50 50 49 48 46 44 43 41 40 41 42 43 44 44 44 45 45 45 45 46 47 47 47 46 45 44 43 42 42 41 41 41 42
50 50 50 50 51 51 52 53 54 55 56 57 58 58 59 59 59 59 60 60 61 61 61 61 60 60 59 59 59 58 57 56 55 54 53 53 53 53 52 51 52 53 54 54 53 51 51 52 52 51 52 52 51 50 51 51 49 47 45 44 42 43 44 44 44 45 45 46 46 47 47 47 47 47 47 48 48 47 46 45 44 44 44 44 44
52 51 51 51 51 51 52 52 53 54 54 55 56 57 57 57 57 58 58 59 60 60 60 60 60 60 59 59 59 59 59 59 59 58 57 56 56 55 54 53 53 54 55 55 55 54 53 52 51 51 53 53 52 52 52 51 48 47 47 45 43 43 44 45 45 46 47 48 48 48 49 49 50 51 51 52 52 51 50 49 48 48 48 48 48
53 53 52 52 51 51 51 52 52 52 53 54 54 55 55 55 56 56 57 57 58 58 59 59 59 59 60 60 60 60 60 60 60 60 59 59 57 56 56 55 55 56 56 56 56 55 53 52 51 52 53 53 52 52 53 52 51 51 51 50 47 44 43 44 45 47 49 51 52 52 51 51 52 54 56 57 58 56 55 53 53 52 52 52 52
53 53 53 53 52 52 52 51 51 51 52 53 53 53 53 53 54 54 54 55 55 56 57 58 58 58 58 59 59 59 59 59 59 59 59 59 59 58 57 57 57 57 57 58 58 57 55 54 55 55 56 55 54 54 55 55 54 54 54 52 50 49 47 46 46 47 50 52 54 54 55 54 53 54 55 57 58 58 57 57 56 55 55 55 55
52 52 52 52 52 52 52 52 51 51 51 52 52 52 52 52 52 52 52 52 53 54 55 56 57 57 57 57 58 58 59 59 58 58 58 59 59 58 58 58 58 59 59 59 59 57 55 55 55 55 54 53 53 53 53 54 54 55 52 49 47 49 50 49 47 48 50 52 54 55 57 57 57 57 57 57 58 58 58 58 58 58 57 56 56
50 51 51 52 52 52 52 53 52 52 52 52 52 52 51 51 52 52 52 52 53 54 55 55 55 56 57 57 57 57 57 58 58 57 57 57 57 57 57 56 56 57 58 58 58 56 55 55 54 53 53 53 54 55 56 57 58 59 57 51 48 49 50 48 48 47 48 49 51 53 55 56 57 58 58 58 58 58 57 58 59 59 58 58 58
50 51 51 51 51 52 52 52 53 53 53 53 53 53 52 52 53 53 53 53 54 54 54 54 55 55 56 56 56 56 56 56 56 56 56 55 55 54 54 54 54 53 53 54 56 56 56 56 54 55 57 58 59 60 60 60 60 60 58 56 53 51 51 49 48 46 45 46 47 49 51 54 55 56 57 57 57 56 56 57 58 59 59 60 61
49 50 51 51 51 51 51 51 52 52 52 52 52 52 52 53 53 53 53 54 54 54 54 54 54 54 55 55 55 55 54 55 55 54 54 53 52 52 53 53 52 52 52 53 54 55 55 56 56 58 60 60 58 56 56 56 55 53 52 52 50 50 51 50 48 46 46 46 47 48 50 52 53 54 55 56 56 56 56 56 57 59 60 62 63
48 48 50 50 50 50 50 50 51 51 51 52 52 52 52 52 52 51 52 52 53 53 53 53 53 53 54 55 54 54 54 54 55 54 54 54 53 52 53 53 53 54 54 54 53 53 53 54 55 56 55 53 52 51 50 51 50 49 48 48 48 49 51 53 53 53 53 54 54 55 54 54 54 54 55 55 56 57 58 59 59 60 61 62 64
48 48 49 49 49 49 49 49 50 51 51 52 52 51 51 50 49 50 51 51 51 51 52 52 52 53 54 54 54 53 53 53 54 54 54 53 53 52 53 52 52 52 51 51 50 49 47 48 49 50 50 50 51 52 53 52 51 50 48 47 47 48 49 51 53 54 55 55 55 56 55 54 54 55 55 56 57 58 59 59 59 60 61 64 66
50 51 51 52 51 51 50 50 51 51 52 53 52 51 50 49 49 51 52 51 51 52 53 54 54 55 55 55 55 54 54 53 54 54 54 53 53 52 51 48 48 47 45 42 39 37 37 39 41 43 45 46 48 49 51 52 52 52 51 49 47 45 46 48 48 49 50 51 51 51 51 51 52 52 53 54 55 56 57 58 59 62 64 67 69
51 51 52 53 53 53 53 53 53 53 54 54 54 53 52 50 52 54 54 54 54 56 57 58 58 58 58 58 58 57 57 56 56 56 56 54 52 49 45 42 41 39 35 31 30 32 34 36 37 37 38 38 39 41 43 46 49 50 51 51 49 46 46 46 46 47 47 48 49 49 50 50 51 51 52 53 55 57 59 61 64 67 68 69 69
54 54 55 55 55 54 54 54 55 55 57 57 57 57 55 54 56 57 57 57 58 60 61 61 61 61 61 60 60 60 59 58 58 58 56 54 49 45 41 38 36 35 33 31 32 34 34 34 34 35 35 35 36 37 39 41 43 46 48 51 51 50 48 47 47 46 46 48 50 51 51 52 52 53 55 56 58 61 63 65 67 68 68 68 69
56 57 58 58 57 56 56 56 56 57 58 59 59 59 58 58 58 58 58 59 60 60 60 60 59 58 56 55 55 55 55 55 54 52 50 47 43 38 36 36 37 36 34 32 31 32 33 34 35 36 36 36 36 38 40 41 43 44 46 48 50 51 52 51 49 47 47 49 50 51 52 54 55 56 57 59 60 62 63 64 65 67 68 70 71
57 57 58 58 58 57 56 56 56 56 58 59 58 57 56 56 55 55 56 57 58 57 55 53 51 48 46 45 45 45 44 44 43 40 38 36 33 31 31 35 38 35 31 30 30 32 34 35 35 35 36 37 39 41 43 43 43 44 45 46 47 48 49 51 50 50 50 50 50 50 51 53 54 55 57 58 59 61 63 65 67 70 71 71 69
57 57 57 57 57 56 56 55 55 54 54 53 51 50 50 50 50 51 52 52 51 49 46 43 40 38 36 35 34 34 34 33 32 30 30 30 31 31 34 39 39 34 31 30 31 31 32 33 34 35 36 37 39 40 41 42 42 43 44 44 45 44 45 46 48 49 51 51 51 51 52 53 54 56 57 59 61 64 66 68 69 68 66 62 58
53 53 54 54 53 53 53 51 49 47 45 44 42 42 41 42 43 44 44 43 41 38 35 32 31 30 29 28 27 27 26 24 23 23 27 30 32 33 36 37 36 32 30 29 29 31 32 34 35 35 35 36 37 38 39 40 41 41 41 41 41 41 42 44 46 48 50 51 51 52 53 55 56 58 60 61 63 63 64 63 62 60 56 53 50
48 48 48 47 47 47 45 43 40 37 36 35 34 33 34 35 36 36 36 34 32 31 29 28 27 27 25 24 23 22 20 19 19 21 24 27 29 31 31 31 29 28 28 29 31 32 33 33 32 33 34 35 36 37 37 37 37 38 38 39 40 41 42 44 46 48 49 50 51 52 54 56 57 58 58 58 58 59 58 57 55 52 50 47 45
Wind_Direction
253 252 251 252 253 255 256 256 254 254 254 255 255 254 253 251 249 246 242 240 240 241 242 244 246 248 250 251 252 253 254 255 256 257 258 259 261 262 263 264 264 264 263 263 262 261 260 258 256 255 253 253 252 252 252 255 256 251 250 254 254 250 252 253 251 247 237 229 226 228 231 233 233 229 226 227 230 233 235 237 238 239 240 241 242
249 247 247 250 252 255 256 255 254 254 255 255 254 253 253 253 252 251 248 245 243 243 244 246 247 247 248 250 250 251 251 253 255 256 258 259 260 262 264 265 265 266 266 266 265 263 261 259 257 255 254 254 254 254 254 254 256 257 258 261 260 254 252 259 264 253 241 237 233 230 230 232 235 233 231 228 228 231 234 236 238 239 240 241 242
246 248 250 252 254 256 255 253 251 252 254 255 255 254 252 252 253 253 253 251 250 249 249 248 248 249 249 251 251 251 251 252 254 256 257 259 260 262 264 266 267 267 267 267 266 264 261 258 257 255 254 254 256 256 254 252 253 257 260 261 263 264 261 263 267 254 239 233 235 235 233 232 234 235 234 232 230 231 233 235 237 238 239 240 242
245 250 253 254 256 255 254 253 252 253 255 257 257 256 254 254 254 255 256 255 256 256 256 255 254 254 254 254 254 254 253 253 255 256 257 258 259 260 263 265 266 267 267 267 266 264 261 258 256 255 254 254 255 256 255 253 252 254 257 258 259 260 260 258 259 257 244 229 224 226 227 231 233 234 235 235 234 233 234 236 237 238 239 239 241
246 250 254 256 256 256 254 255 256 257 258 259 259 259 258 257 257 258 259 260 260 261 261 260 259 259 259 258 256 256 257 257 258 259 259 260 260 261 263 264 265 266 267 267 266 264 261 258 255 254 254 254 255 256 256 256 255 254 254 255 255 254 256 257 256 258 254 244 231 221 216 220 228 233 236 238 238 237 236 236 237 239 239 239 239
246 249 255 259 259 259 259 259 262 263 262 261 260 261 262 262 262 263 263 264 263 262 261 261 260 260 260 259 258 258 259 259 261 262 263 264 264 265 265 266 265 265 265 265 265 264 262 259 255 254 254 254 254 255 256 257 256 255 254 254 255 254 255 258 258 259 259 260 251 233 221 215 217 225 233 239 242 242 240 239 238 239 241 242 241
250 252 257 262 264 263 264 264 265 265 262 261 262 263 265 266 266 266 265 264 262 260 260 261 261 260 259 259 260 260 261 261 262 263 264 266 266 266 266 266 266 265 264 263 263 262 261 259 256 255 254 254 253 253 255 256 256 256 255 255 255 255 255 256 257 258 259 262 260 247 237 230 219 216 222 233 241 245 246 244 242 241 243 245 244
255 257 258 264 267 266 268 270 267 263 260 261 263 264 265 266 265 264 263 261 259 259 259 260 261 261 260 261 261 263 264 264 265 265 266 266 266 266 266 266 266 265 264 263 262 261 259 257 256 255 255 255 254 253 254 255 255 256 256 256 256 256 255 254 255 255 256 257 258 256 253 250 242 230 227 230 234 239 243 247 245 240 242 247 247
259 260 263 267 269 269 269 267 263 258 255 257 260 262 262 262 261 260 258 257 256 257 258 259 260 261 261 262 263 265 266 267 268 268 268 267 266 265 265 265 264 263 262 261 261 260 258 256 255 254 255 255 255 255 254 255 255 255 255 255 255 255 255 254 253 253 253 254 255 258 257 257 257 252 249 242 234 231 234 240 242 239 244 252 254
267 267 269 268 265 263 261 260 257 253 251 254 257 259 259 258 257 256 254 253 253 254 255 257 259 260 261 262 263 265 267 268 269 268 268 268 267 265 263 261 260 259 259 259 259 258 257 256 254 254 255 256 256 255 255 255 255 255 254 254 254 254 254 253 252 252 252 251 252 254 255 256 258 257 257 252 243 238 233 233 234 235 241 251 255
273 271 268 262 255 253 256 257 255 252 250 251 253 255 255 254 253 253 253 252 251 253 255 256 258 259 261 262 263 265 266 268 269 269 268 269 268 267 264 261 258 257 257 257 258 257 256 255 254 254 254 256 257 256 256 255 255 255 255 254 253 253 253 253 252 252 253 252 251 252 253 254 255 257 258 255 249 246 242 239 237 235 240 246 251
273 272 266 258 252 252 256 257 256 254 250 248 248 250 251 250 250 251 253 254 253 254 256 257 258 259 260 262 263 264 265 266 267 268 268 269 269 269 268 265 261 258 257 257 257 257 256 254 253 253 254 256 257 257 256 255 254 254 253 254 253 253 253 253 253 252 253 253 251 251 252 252 253 254 256 257 254 251 249 247 245 245 246 248 250
277 277 273 265 259 255 249 247 250 251 248 245 244 247 247 246 250 254 257 259 257 256 257 258 259 260 261 262 263 264 264 264 265 267 268 269 271 272 272 271 268 265 261 260 259 259 258 255 253 252 253 255 256 256 256 254 253 252 251 251 252 252 252 254 255 254 253 254 254 252 252 253 253 253 254 255 254 252 252 251 249 250 251 252 253
283 282 277 269 264 258 248 240 240 243 244 243 243 245 243 242 250 257 263 266 263 260 258 259 261 262 263 264 265 266 266 265 265 266 269 271 273 275 276 276 275 273 271 268 266 264 262 259 255 252 251 252 254 255 255 254 251 250 249 249 250 250 250 252 255 256 254 254 255 254 252 253 254 254 253 253 253 252 251 251 251 251 251 251 252
274 275 271 263 256 255 253 247 244 243 244 242 243 246 245 247 253 258 263 267 267 266 265 264 265 265 266 267 268 270 270 270 268 267 268 270 272 275 277 278 278 278 278 276 275 272 269 265 260 255 251 250 250 252 253 253 253 251 249 249 249 250 250 250 252 255 255 254 254 255 255 253 254 255 254 253 252 252 251 250 250 252 253 252 252
254 257 259 258 256 256 253 249 248 246 244 244 246 249 251 253 254 255 259 264 266 270 273 273 272 270 269 269 270 271 271 271 270 269 269 269 270 272 275 277 278 278 278 279 279 277 275 272 267 261 256 252 251 250 251 252 252 252 251 250 250 251 251 251 250 251 254 255 254 254 255 254 254 255 256 255 253 253 252 252 251 252 253 254 254
238 243 247 251 256 258 252 244 241 243 246 249 251 251 252 252 251 254 261 266 269 273 276 276 275 274 273 272 273 274 273 273 274 272 270 269 269 270 272 274 277 278 278 278 278 277 276 274 271 267 262 257 254 253 252 253 252 252 252 251 250 250 251 251 251 249 250 252 253 252 253 254 254 253 254 256 256 254 253 253 252 252 253 255 256
230 234 239 243 247 252 253 246 242 243 245 251 256 256 253 253 256 259 262 265 269 271 269 269 271 273 273 273 273 273 273 273 275 275 272 269 268 268 269 270 273 275 277 277 277 276 275 274 272 270 267 264 260 257 256 257 257 257 256 256 255 253 253 252 252 251 250 250 251 252 252 253 254 255 255 255 256 257 257 256 255 254 253 254 256
236 235 237 241 243 250 256 255 252 252 250 252 259 259 255 258 263 263 262 264 268 266 264 266 268 269 270 271 270 270 269 268 268 269 269 268 266 266 267 268 269 271 273 274 275 275 275 275 275 273 271 269 266 264 262 261 261 262 263 263 263 262 261 260 259 259 259 257 256 255 256 256 256 257 258 258 258 258 259 259 259 258 256 255 255
245 243 244 246 248 253 258 257 255 254 254 255 259 258 258 265 268 265 264 265 265 265 265 266 266 265 266 266 265 266 268 269 268 268 268 268 267 266 266 266 267 267 269 271 272 273 273 274 275 275 275 273 271 269 267 266 265 265 265 265 265 266 266 266 266 266 266 266 266 265 264 264 264 265 266 266 265 264 263 263 263 262 260 258 257
247 248 249 248 249 253 257 256 251 250 252 256 259 260 263 270 270 267 267 264 262 262 264 266 267 266 264 263 262 264 267 270 272 272 270 270 269 269 267 267 267 267 268 269 270 272 272 272 273 274 275 275 274 272 270 268 267 266 265 265 265 265 265 265 265 266 266 266 268 269 269 269 269 270 271 271 272 272 271 269 268 267 265 263 262
253 255 253 248 244 247 251 253 252 252 254 257 260 263 266 269 270 271 270 266 262 260 260 264 269 271 270 267 266 267 269 271 274 274 273 272 272 270 269 268 269 269 269 270 270 271 273 273 273 273 273 274 275 275 273 271 268 267 266 265 265 265 264 264 264 265 265 265 266 267 268 269 270 270 271 271 272 273 274 274 273 272 270 268 267
260 259 258 253 247 246 248 250 252 254 256 258 260 262 264 266 268 270 270 268 263 259 258 261 266 270 271 271 271 272 273 272 271 271 272 274 275 273 271 269 269 269 270 271 271 271 273 274 273 273 272 272 271 272 273 272 271 269 267 265 265 264 264 264 263 264 264 265 266 267 267 268 269 270 270 271 271 272 273 274 274 275 275 273 272
264 261 259 256 253 251 250 248 247 249 253 257 260 261 262 263 264 264 266 265 262 257 256 258 261 263 265 268 270 272 273 272 272 271 272 273 273 274 274 272 269 268 269 270 271 271 271 272 272 272 273 273 271 268 268 269 270 270 268 267 266 265 264 263 263 263 263 263 264 265 266 267 268 269 269 269 269 270 270 271 272 272 273 274 274
268 263 260 257 255 255 254 252 250 250 250 252 257 260 260 260 260 260 260 260 258 256 255 256 258 260 263 265 265 267 269 271 272 273 272 271 271 272 273 273 272 271 270 269 271 273 272 270 269 270 272 275 273 268 266 266 267 268 269 268 267 265 265 264 263 263 263 263 263 263 263 264 265 266 267 267 268 268 267 267 268 269 270 271 273
271 266 261 258 256 256 257 257 257 255 252 249 251 255 258 258 257 258 258 257 256 255 256 258 261 262 263 264 263 264 266 266 267 269 270 270 270 271 272 273 274 273 272 271 273 276 275 271 269 269 270 271 271 268 266 265 266 267 268 268 266 265 264 264 264 263 263 263 263 263 262 262 262 262 262 263 263 264 265 265 266 267 267 268 270
272 267 262 258 256 257 258 260 260 259 257 253 249 250 254 256 255 255 257 257 257 258 260 261 262 263 263 263 264 264 264 264 263 264 268 270 272 273 275 275 275 274 273 273 274 275 275 273 272 271 271 269 268 267 266 266 267 269 269 268 266 264 262 263 263 263 264 264 263 262 261 260 259 258 257 257 259 261 262 264 265 265 266 267 268
269 266 262 259 257 257 258 260 261 260 259 257 254 251 252 254 254 254 256 257 257 259 260 260 260 260 260 261 262 263 264 265 265 264 267 271 273 274 275 275 275 275 275 275 275 275 276 277 276 274 272 271 269 268 266 267 269 271 271 270 268 264 261 260 261 262 263 264 264 262 260 258 256 254 253 254 257 259 261 263 264 265 266 267 268
265 263 261 260 259 259 259 260 260 259 257 256 256 254 254 255 255 255 256 256 257 259 260 260 259 258 258 258 259 262 263 264 265 265 267 270 272 274 274 274 275 276 276 276 277 277 278 278 277 275 273 272 272 270 268 267 268 272 274 273 271 267 262 259 260 261 262 262 263 262 260 258 255 253 253 255 257 259 260 262 263 264 266 268 270
262 261 259 258 258 259 260 260 259 257 254 252 254 255 256 257 257 256 255 256 257 259 261 262 261 260 259 258 260 264 265 263 262 261 262 265 268 271 274 275 275 275 275 275 276 277 277 276 275 274 272 271 272 273 272 270 269 270 273 274 273 271 265 261 259 260 262 262 261 260 260 259 258 256 256 257 258 259 260 261 261 262 265 268 272
263 261 259 258 258 258 259 259 259 257 254 252 253 254 255 256 258 258 257 257 257 258 259 261 262 262 261 261 262 266 268 267 264 260 258 261 264 267 270 272 273 275 275 274 274 275 275 275 274 274 274 273 273 274 275 274 272 271 271 271 273 272 268 262 260 260 261 262 262 261 259 259 260 259 259 260 260 260 261 261 261 261 264 268 272
265 263 261 260 260 259 259 259 258 258 258 257 256 257 258 258 259 260 261 260 259 259 259 261 262 262 262 262 263 265 267 267 266 263 261 260 264 267 268 268 269 271 273 274 273 272 273 273 272 272 273 274 273 273 274 272 271 271 271 269 270 270 268 264 262 260 260 261 262 262 261 260 259 259 260 261 262 261 261 261 261 262 265 268 272
267 266 264 263 262 261 261 259 259 258 259 259 259 260 260 260 260 260 261 261 261 261 261 261 262 262 263 263 263 264 265 266 266 266 265 264 266 269 269 268 267 268 269 271 272 271 271 271 271 272 272 272 271 270 270 270 271 271 272 269 265 264 265 265 263 261 260 261 261 261 262 261 260 260 260 262 262 261 260 260 261 262 266 269 273
266 265 265 264 264 263 262 261 260 260 260 260 260 261 261 261 260 261 260 261 261 261 262 262 261 261 261 262 262 263 264 265 267 268 267 267 268 270 270 269 269 268 269 269 270 269 269 270 273 274 273 272 271 269 269 271 273 272 272 270 263 259 262 263 262 262 261 261 262 262 262 263 263 262 263 264 264 262 260 259 260 262 265 269 273
266 265 265 265 264 263 263 262 262 262 261 261 261 261 261 261 261 261 261 262 262 263 263 263 262 261 260 260 260 261 262 264 266 267 267 267 268 268 269 269 268 268 269 269 269 269 269 271 273 274 272 270 270 270 270 272 272 271 271 270 265 262 264 263 261 262 262 262 263 263 263 264 265 265 266 267 267 265 261 258 259 261 264 268 272
265 265 265 265 265 264 264 263 263 262 262 261 262 261 261 261 261 262 262 262 263 264 265 265 265 264 263 263 262 262 262 263 264 265 266 266 266 266 267 268 268 267 268 268 269 270 272 274 274 272 271 270 270 270 271 272 272 272 272 272 270 269 271 269 265 263 262 262 263 264 264 265 266 266 266 267 268 267 263 259 259 260 264 267 271
264 264 264 265 265 265 264 264 263 263 262 261 261 261 261 261 262 262 262 262 263 263 264 264 265 265 265 265 265 265 264 264 263 263 264 264 265 265 265 266 266 267 267 268 269 271 274 274 273 271 271 272 271 271 272 273 274 275 276 276 274 271 273 276 272 266 264 263 262 263 264 265 266 266 266 267 268 267 264 261 259 260 263 267 271
263 264 264 264 264 264 264 264 264 263 263 262 262 262 262 262 262 262 263 263 264 264 263 264 264 264 264 264 264 264 264 264 264 263 263 263 264 264 265 265 265 265 266 266 268 271 273 272 272 272 272 271 271 272 273 274 276 278 279 278 275 272 273 275 273 268 266 265 263 263 263 263 265 265 266 268 269 268 265 262 260 261 264 268 272
263 264 264 264 264 264 264 264 264 264 264 264 264 263 263 263 263 263 263 264 264 264 264 265 265 264 264 264 264 264 264 264 264 264 264 264 264 264 264 264 264 264 264 265 267 268 269 269 270 272 272 272 273 275 276 276 278 280 280 277 274 274 274 274 270 267 266 265 265 265 265 264 265 265 266 267 268 267 265 262 261 262 265 269 273
262 263 263 263 264 264 264 264 264 264 264 264 264 263 263 263 262 263 263 264 264 264 264 265 265 265 265 265 265 265 265 265 264 264 264 264 264 265 265 265 265 265 265 265 266 266 267 267 268 269 270 272 274 276 277 277 278 280 280 278 275 273 272 270 266 265 266 267 268 268 267 267 266 266 266 266 265 265 264 263 263 265 268 271 274
264 264 264 264 264 264 264 265 265 265 265 265 265 264 263 262 262 262 262 262 263 264 264 264 264 264 264 264 264 265 265 265 264 264 264 264 264 265 265 266 267 267 266 267 267 267 267 268 268 269 271 272 274 275 277 277 278 279 279 277 273 269 266 264 261 261 265 269 270 271 271 270 268 268 267 267 266 266 267 267 269 271 273 275 276
265 265 264 264 264 264 264 265 265 265 266 266 265 264 263 262 261 260 261 262 263 264 264 263 263 263 263 262 263 263 263 263 263 263 263 263 263 264 265 266 267 268 268 269 269 270 270 270 270 270 271 271 271 273 275 276 277 279 279 277 273 267 264 262 261 264 269 273 273 273 274 273 271 269 269 270 270 271 272 272 273 274 275 276 276
267 267 266 265 264 264 264 265 266 266 266 266 265 264 263 263 262 262 263 264 264 264 264 264 263 263 263 262 262 262 262 262 262 261 261 262 262 263 265 266 266 267 269 270 270 270 269 269 269 268 267 268 270 272 274 275 275 276 278 278 276 273 270 268 268 269 272 274 274 274 273 273 272 270 269 270 271 272 272 272 273 274 276 276 277
266 267 267 267 267 267 267 267 267 267 267 267 266 265 264 264 265 266 266 266 266 266 266 265 264 264 264 263 263 262 262 261 261 261 261 261 262 263 263 262 263 266 269 270 266 262 261 265 268 269 269 272 274 275 276 276 275 274 275 275 275 274 272 271 270 270 269 270 270 271 271 271 271 270 270 271 271 271 271 273 274 276 277 278 278
266 265 265 265 265 266 267 267 267 267 267 267 267 266 266 267 268 269 269 269 269 269 268 267 266 266 265 264 264 263 262 262 261 260 261 262 262 260 257 256 260 262 259 253 251 253 260 267 272 274 275 278 279 280 279 277 276 274 271 270 269 269 268 268 268 268 268 268 268 269 270 270 271 271 272 273 273 273 274 276 276 277 278 278 278
270 270 269 268 267 266 266 266 266 266 266 267 267 268 268 269 269 270 271 271 270 269 268 267 266 266 265 264 264 263 262 261 261 260 260 261 260 256 251 249 249 247 242 241 249 257 265 271 275 277 279 280 280 280 279 277 275 273 270 267 265 263 264 266 268 269 271 272 271 270 271 271 271 272 273 274 275 276 276 276 277 277 277 278 278
271 271 271 271 270 270 269 268 267 267 267 267 267 268 269 269 269 270 270 269 267 266 265 265 264 264 263 262 261 261 261 261 260 260 260 258 255 251 247 242 237 237 240 245 254 263 268 272 275 277 277 277 276 276 277 277 276 274 272 270 267 264 262 264 268 273 276 275 272 270 270 270 270 272 273 274 275 275 276 276 276 277 278 279 280
273 273 272 272 271 271 271 270 270 269 269 269 269 269 269 269 268 267 265 264 263 262 261 261 260 260 259 259 260 261 261 260 260 257 254 248 239 233 233 232 232 236 244 251 260 268 270 270 271 272 273 274 274 274 275 276 276 276 275 274 272 269 267 266 269 273 276 274 272 270 270 271 272 273 275 275 276 277 277 278 278 279 280 281 282
273 272 272 272 272 272 272 272 271 271 270 271 270 269 267 265 263 261 260 259 259 259 259 258 257 257 257 258 259 259 257 255 252 246 235 225 219 219 223 228 233 243 253 259 263 267 267 266 268 271 274 275 276 276 276 276 276 277 276 275 273 272 271 270 271 273 274 274 274 275 276 276 277 278 279 279 279 279 280 281 281 282 282 282 281
271 270 270 270 271 271 271 271 272 271 271 269 266 263 261 259 258 257 257 257 257 257 256 254 252 251 252 252 252 251 247 241 236 230 220 213 212 218 224 230 237 247 254 258 260 263 265 267 270 273 274 275 275 275 276 276 276 277 277 276 276 276 276 275 276 276 277 278 279 280 281 281 281 281 281 281 281 282 283 283 284 284 284 284 283
268 267 268 268 268 268 270 271 271 269 266 262 259 257 255 254 254 255 255 255 254 252 248 245 244 244 246 246 242 237 231 222 216 215 211 208 211 219 226 232 238 244 248 253 258 263 266 269 270 271 272 274 275 276 276 277 278 280 281 281 281 281 281 281 281 281 282 283 284 283 283 283 282 282 282 283 284 285 285 285 285 286 286 286 284
Height
5767 5767 5768 5768 5768 5768 5768 5769 5769 5769 5768 5768 5768 5768 5768 5768 5768 5769 5770 5771 5772 5773 5773 5774 5774 5775 5776 5776 5777 5778 5778 5779 5779 5779 5779 5779 5779 5779 5779 5779 5780 5780 5781 5781 5781 5782 5782 5782 5782 5782 5782 5782 5782 5783 5784 5785 5785 5786 5787 5787 5788 5789 5789 5789 5790 5791 5791 5792 5793 5795 5796 5797 5799 5802 5804 5805 5807 5808 5809 5811 5812 5814 5815 5816 5817
5765 5765 5765 5765 5765 5766 5766 5766 5766 5766 5765 5765 5765 5765 5765 5765 5766 5766 5767 5768 5769 5770 5771 5771 5772 5772 5773 5773 5774 5775 5775 5776 5776 5776 5776 5776 5776 5777 5777 5777 5777 5777 5777 5778 5778 5779 5779 5779 5780 5780 5779 5779 5779 5780 5781 5782 5782 5783 5784 5785 5785 5786 5786 5787 5787 5788 5789 5789 5790 5791 5793 5794 5796 5798 5800 5801 5803 5804 5805 5807 5808 5809 5810 5812 5813
5763 5763 5763 5763 5763 5763 5764 5764 5763 5763 5762 5762 5761 5761 5762 5762 5763 5764 5764 5765 5767 5767 5768 5768 5769 5769 5770 5771 5771 5772 5772 5773 5773 5773 5773 5774 5774 5774 5774 5774 5774 5774 5774 5775 5776 5776 5776 5776 5777 5777 5777 5776 5776 5777 5778 5779 5779 5780 5782 5782 5782 5782 5783 5784 5785 5785 5786 5786 5787 5788 5789 5791 5792 5794 5795 5797 5799 5800 5801 5803 5804 5805 5806 5808 5810
5760 5760 5760 5761 5761 5761 5761 5761 5760 5760 5759 5758 5758 5758 5758 5760 5760 5761 5762 5763 5764 5764 5765 5765 5766 5767 5768 5768 5769 5769 5769 5770 5770 5770 5771 5771 5771 5772 5772 5772 5771 5771 5771 5772 5772 5773 5773 5774 5774 5774 5774 5774 5774 5774 5775 5776 5777 5778 5779 5779 5779 5780 5781 5782 5782 5782 5782 5783 5784 5785 5786 5787 5788 5790 5791 5792 5794 5796 5797 5799 5800 5801 5802 5804 5806
5756 5756 5757 5757 5758 5758 5758 5758 5758 5757 5756 5755 5754 5754 5755 5757 5758 5758 5759 5760 5761 5761 5762 5762 5762 5764 5765 5765 5766 5766 5767 5767 5767 5767 5768 5768 5769 5769 5769 5769 5769 5768 5768 5768 5769 5770 5770 5771 5771 5771 5771 5772 5772 5772 5772 5773 5774 5776 5776 5777 5778 5779 5779 5780 5780 5779 5779 5780 5781 5782 5783 5783 5785 5786 5788 5788 5790 5791 5793 5794 5796 5796 5798 5800 5801
5753 5754 5754 5754 5755 5755 5755 5755 5755 5754 5753 5752 5752 5752 5752 5754 5755 5756 5757 5758 5759 5758 5758 5759 5759 5761 5761 5762 5762 5763 5763 5764 5764 5765 5765 5765 5766 5766 5766 5766 5766 5766 5765 5765 5766 5766 5767 5767 5768 5768 5768 5769 5770 5770 5770 5770 5771 5772 5773 5774 5775 5776 5777 5777 5778 5778 5777 5778 5779 5779 5780 5781 5782 5783 5784 5785 5786 5787 5788 5790 5791 5792 5793 5795 5797
5751 5751 5752 5751 5752 5752 5753 5753 5752 5751 5750 5749 5749 5749 5750 5751 5752 5753 5754 5755 5755 5755 5755 5755 5756 5757 5758 5758 5759 5759 5760 5761 5761 5762 5762 5762 5762 5763 5763 5763 5763 5763 5762 5762 5763 5763 5764 5764 5764 5765 5765 5766 5767 5767 5767 5768 5768 5769 5770 5771 5771 5772 5774 5775 5775 5776 5776 5776 5776 5777 5778 5778 5779 5780 5781 5782 5783 5784 5785 5786 5787 5788 5790 5791 5792
5748 5748 5748 5748 5748 5748 5749 5749 5748 5748 5747 5746 5746 5747 5748 5748 5749 5750 5751 5751 5752 5752 5752 5752 5753 5754 5755 5755 5755 5756 5757 5757 5758 5759 5759 5759 5759 5759 5759 5759 5760 5760 5759 5759 5759 5760 5760 5761 5761 5762 5762 5763 5764 5764 5764 5765 5765 5766 5767 5767 5768 5769 5770 5772 5773 5773 5774 5773 5773 5774 5775 5775 5776 5777 5778 5780 5780 5781 5782 5782 5783 5785 5786 5787 5788
5744 5744 5744 5744 5744 5744 5745 5745 5745 5744 5744 5743 5743 5744 5745 5746 5746 5747 5747 5748 5748 5748 5749 5749 5750 5751 5751 5752 5752 5753 5754 5754 5755 5755 5755 5755 5755 5756 5756 5756 5756 5756 5756 5756 5756 5756 5757 5757 5758 5758 5759 5760 5761 5761 5762 5762 5763 5763 5764 5765 5765 5766 5767 5768 5769 5770 5771 5771 5771 5771 5772 5772 5773 5774 5775 5777 5778 5778 5779 5779 5781 5783 5783 5783 5784
5739 5739 5740 5739 5739 5740 5740 5740 5741 5741 5740 5740 5740 5741 5742 5743 5743 5744 5744 5745 5745 5745 5746 5746 5747 5748 5749 5749 5750 5750 5751 5751 5751 5751 5752 5752 5752 5752 5753 5753 5753 5753 5753 5753 5753 5753 5753 5754 5755 5755 5756 5756 5757 5758 5759 5759 5760 5760 5761 5761 5762 5763 5764 5764 5765 5766 5767 5768 5768 5768 5769 5769 5770 5771 5772 5774 5775 5775 5776 5777 5778 5780 5780 5780 5780
5733 5734 5734 5734 5735 5735 5736 5737 5737 5738 5738 5738 5738 5739 5739 5740 5741 5741 5741 5742 5742 5743 5743 5744 5744 5745 5745 5746 5747 5747 5748 5748 5748 5748 5748 5748 5749 5749 5749 5750 5750 5750 5750 5750 5750 5750 5750 5751 5751 5752 5752 5753 5754 5755 5756 5756 5757 5757 5758 5758 5759 5760 5760 5761 5762 5763 5764 5765 5766 5766 5766 5767 5768 5768 5769 5770 5772 5773 5773 5774 5775 5776 5777 5778 5778
5729 5729 5730 5730 5731 5732 5733 5733 5734 5735 5735 5735 5735 5736 5737 5738 5738 5738 5739 5739 5740 5740 5741 5741 5741 5742 5742 5743 5744 5744 5745 5745 5746 5745 5745 5745 5746 5746 5747 5747 5747 5747 5747 5747 5747 5748 5748 5748 5749 5749 5750 5750 5751 5751 5752 5753 5754 5754 5755 5755 5756 5756 5757 5758 5759 5760 5760 5761 5762 5763 5763 5764 5765 5765 5766 5767 5769 5769 5770 5771 5772 5773 5773 5774 5775
5725 5725 5726 5727 5728 5729 5730 5731 5732 5733 5733 5733 5733 5733 5735 5736 5735 5735 5736 5737 5737 5738 5738 5738 5738 5739 5739 5740 5741 5741 5742 5742 5743 5743 5743 5743 5743 5743 5744 5744 5745 5745 5745 5745 5745 5745 5746 5746 5746 5747 5747 5748 5748 5749 5749 5750 5751 5751 5752 5752 5753 5753 5754 5754 5755 5756 5757 5758 5759 5760 5760 5761 5761 5763 5763 5764 5765 5766 5767 5768 5769 5770 5770 5771 5771
5722 5722 5723 5724 5725 5726 5727 5728 5729 5730 5730 5730 5730 5731 5733 5733 5733 5733 5734 5734 5735 5735 5735 5735 5736 5736 5737 5737 5738 5738 5739 5739 5740 5740 5740 5740 5740 5741 5741 5742 5742 5742 5743 5743 5743 5743 5744 5744 5744 5744 5745 5745 5746 5746 5747 5748 5748 5749 5749 5750 5750 5751 5751 5752 5752 5753 5754 5755 5755 5756 5757 5758 5758 5759 5760 5761 5762 5763 5764 5765 5766 5767 5768 5768 5768
5720 5721 5721 5722 5723 5724 5725 5726 5727 5727 5728 5728 5728 5729 5730 5731 5731 5731 5731 5731 5732 5732 5733 5733 5733 5734 5734 5734 5735 5735 5736 5736 5737 5737 5738 5738 5738 5738 5739 5739 5740 5740 5740 5740 5741 5741 5742 5742 5742 5742 5743 5743 5744 5744 5745 5745 5746 5746 5747 5747 5748 5748 5749 5749 5750 5750 5751 5752 5752 5753 5754 5754 5755 5756 5757 5758 5759 5759 5760 5762 5762 5763 5764 5765 5765
5719 5719 5720 5720 5721 5722 5724 5725 5725 5725 5726 5726 5726 5727 5727 5728 5728 5728 5729 5729 5729 5730 5730 5731 5731 5731 5731 5732 5732 5732 5733 5733 5734 5734 5735 5735 5735 5736 5736 5736 5737 5737 5738 5738 5739 5739 5739 5740 5740 5741 5741 5741 5741 5742 5743 5743 5744 5744 5745 5745 5745 5746 5746 5747 5747 5748 5748 5749 5749 5750 5751 5751 5752 5752 5753 5754 5755 5756 5757 5758 5759 5760 5761 5761 5762
5718 5718 5718 5718 5718 5720 5722 5723 5723 5723 5723 5724 5724 5724 5725 5725 5726 5726 5726 5726 5727 5728 5728 5728 5728 5728 5729 5729 5729 5730 5730 5731 5731 5731 5732 5732 5732 5733 5733 5734 5734 5735 5735 5736 5736 5737 5737 5738 5738 5738 5739 5739 5739 5740 5740 5741 5741 5742 5742 5742 5743 5743 5743 5744 5744 5745 5745 5746 5746 5747 5748 5748 5749 5749 5750 5750 5751 5752 5753 5754 5755 5756 5757 5758 5759
5716 5717 5717 5716 5716 5716 5718 5719 5721 5721 5721 5721 5721 5722 5722 5723 5723 5723 5723 5723 5724 5725 5726 5726 5726 5726 5726 5726 5726 5727 5727 5728 5728 5728 5729 5729 5729 5729 5730 5730 5731 5732 5732 5733 5733 5734 5735 5735 5736 5736 5736 5736 5737 5737 5738 5738 5738 5739 5739 5740 5740 5740 5741 5741 5742 5742 5743 5743 5744 5744 5745 5745 5746 5746 5747 5748 5748 5749 5750 5751 5752 5753 5754 5755 5756
5713 5714 5715 5714 5714 5714 5714 5715 5716 5717 5718 5718 5719 5719 5720 5720 5721 5721 5721 5721 5721 5722 5723 5723 5723 5723 5724 5724 5723 5723 5724 5724 5725 5725 5725 5725 5726 5726 5726 5727 5728 5728 5729 5730 5730 5731 5732 5732 5733 5733 5733 5734 5734 5734 5735 5735 5736 5736 5736 5736 5737 5737 5738 5738 5738 5739 5739 5740 5740 5741 5741 5742 5742 5743 5743 5744 5745 5746 5746 5747 5748 5749 5751 5752 5753
5710 5711 5712 5712 5712 5712 5712 5712 5712 5712 5714 5715 5716 5716 5716 5717 5718 5718 5719 5719 5719 5719 5719 5720 5720 5720 5721 5721 5721 5721 5721 5721 5722 5723 5723 5723 5723 5723 5723 5724 5725 5725 5726 5727 5727 5728 5728 5729 5729 5730 5730 5730 5731 5731 5731 5732 5732 5732 5733 5733 5733 5734 5734 5734 5735 5735 5735 5735 5736 5736 5737 5738 5738 5739 5739 5740 5741 5741 5742 5743 5743 5744 5746 5747 5749
5706 5707 5708 5709 5709 5709 5710 5710 5709 5709 5709 5710 5711 5712 5713 5713 5714 5715 5715 5716 5716 5716 5716 5716 5717 5717 5717 5717 5717 5718 5718 5719 5719 5720 5721 5721 5721 5721 5721 5721 5722 5722 5723 5724 5724 5724 5725 5725 5725 5726 5726 5726 5726 5727 5727 5728 5728 5728 5729 5729 5729 5730 5730 5730 5731 5731 5732 5732 5732 5732 5733 5733 5734 5734 5735 5735 5736 5736 5737 5738 5739 5739 5740 5742 5743
5701 5703 5704 5705 5706 5706 5707 5707 5708 5707 5707 5707 5708 5708 5709 5709 5710 5710 5711 5712 5713 5713 5713 5713 5714 5714 5714 5714 5714 5715 5716 5716 5716 5717 5718 5718 5718 5718 5718 5718 5719 5719 5720 5721 5722 5722 5722 5721 5721 5721 5721 5721 5722 5722 5722 5723 5723 5724 5724 5724 5725 5725 5725 5726 5726 5727 5727 5728 5728 5728 5729 5729 5730 5730 5730 5731 5731 5732 5732 5732 5733 5734 5735 5736 5737
5696 5697 5699 5700 5701 5702 5702 5703 5704 5704 5705 5704 5704 5705 5706 5706 5706 5706 5706 5707 5709 5709 5710 5710 5710 5710 5711 5711 5711 5711 5712 5712 5712 5713 5714 5714 5714 5714 5714 5714 5715 5715 5716 5717 5718 5719 5719 5719 5718 5718 5718 5717 5717 5717 5718 5718 5718 5719 5719 5719 5720 5720 5721 5721 5722 5722 5723 5723 5724 5724 5724 5725 5725 5726 5726 5726 5727 5727 5727 5728 5728 5728 5729 5730 5731
5691 5692 5693 5695 5696 5697 5697 5698 5699 5700 5701 5701 5701 5701 5701 5702 5703 5703 5703 5703 5704 5705 5705 5705 5706 5706 5706 5707 5707 5707 5707 5707 5708 5709 5710 5710 5709 5709 5710 5710 5711 5711 5712 5713 5713 5714 5715 5715 5715 5715 5714 5714 5713 5713 5713 5713 5713 5713 5714 5715 5715 5715 5716 5716 5717 5718 5718 5719 5719 5720 5720 5720 5721 5721 5721 5721 5722 5722 5723 5723 5723 5723 5723 5724 5725
5686 5687 5688 5689 5690 5691 5691 5693 5694 5695 5696 5696 5697 5696 5696 5697 5697 5698 5698 5698 5698 5699 5700 5700 5701 5701 5702 5702 5703 5703 5703 5703 5704 5704 5705 5705 5705 5705 5705 5706 5706 5707 5707 5708 5709 5709 5710 5710 5711 5711 5711 5711 5710 5709 5709 5709 5709 5709 5709 5710 5710 5710 5711 5712 5712 5713 5713 5714 5714 5715 5715 5716 5716 5716 5716 5716 5717 5717 5717 5718 5718 5718 5719 5719 5719
5680 5681 5682 5683 5684 5685 5685 5686 5687 5688 5690 5691 5692 5692 5692 5692 5692 5692 5693 5693 5693 5694 5694 5695 5696 5696 5697 5697 5698 5699 5698 5698 5699 5699 5699 5700 5700 5700 5701 5701 5702 5702 5703 5703 5704 5704 5705 5705 5706 5706 5706 5707 5706 5705 5705 5705 5705 5705 5705 5705 5705 5705 5706 5706 5707 5708 5708 5709 5709 5710 5710 5711 5711 5711 5711 5711 5712 5712 5712 5712 5712 5713 5713 5714 5714
5674 5675 5676 5677 5678 5678 5679 5680 5681 5682 5683 5684 5685 5686 5686 5687 5687 5687 5687 5688 5688 5689 5690 5690 5691 5691 5691 5692 5692 5693 5694 5694 5694 5694 5694 5695 5695 5696 5696 5696 5697 5697 5698 5699 5699 5699 5699 5700 5700 5701 5702 5702 5702 5701 5700 5700 5701 5701 5701 5701 5701 5701 5701 5701 5702 5702 5703 5703 5704 5705 5705 5705 5706 5706 5706 5706 5706 5707 5707 5707 5707 5707 5708 5708 5709
5667 5668 5669 5670 5671 5672 5673 5674 5675 5676 5676 5677 5678 5679 5680 5680 5681 5681 5681 5682 5682 5683 5684 5685 5685 5686 5686 5687 5687 5688 5688 5689 5689 5690 5690 5690 5690 5690 5691 5691 5691 5692 5693 5693 5693 5694 5694 5695 5695 5696 5697 5697 5696 5696 5696 5696 5696 5697 5697 5696 5696 5696 5696 5696 5697 5697 5698 5698 5699 5699 5700 5700 5700 5701 5701 5701 5701 5701 5701 5702 5702 5702 5702 5703 5703
5660 5661 5662 5663 5664 5665 5666 5667 5668 5669 5670 5671 5671 5672 5673 5673 5674 5675 5675 5676 5676 5677 5678 5678 5679 5679 5680 5681 5682 5682 5683 5684 5684 5684 5684 5684 5684 5684 5685 5686 5686 5686 5686 5687 5688 5688 5689 5690 5690 5690 5691 5691 5691 5691 5691 5691 5692 5692 5691 5691 5692 5691 5691 5691 5692 5692 5692 5693 5693 5694 5694 5694 5694 5695 5695 5695 5696 5695 5696 5696 5696 5696 5696 5697 5697
5653 5654 5655 5656 5656 5657 5658 5659 5660 5662 5663 5664 5664 5665 5666 5666 5667 5668 5669 5670 5670 5671 5671 5672 5672 5673 5674 5674 5675 5676 5677 5678 5679 5679 5679 5679 5679 5679 5680 5680 5681 5681 5680 5682 5683 5682 5682 5683 5684 5684 5685 5685 5685 5684 5685 5686 5686 5686 5686 5686 5686 5686 5686 5686 5686 5687 5687 5687 5688 5688 5688 5688 5689 5689 5689 5690 5690 5690 5690 5690 5691 5691 5691 5691 5691
5646 5647 5648 5649 5649 5650 5651 5652 5653 5654 5655 5656 5657 5658 5659 5659 5660 5661 5662 5663 5664 5664 5665 5665 5665 5666 5667 5668 5668 5669 5670 5671 5672 5672 5673 5674 5674 5675 5675 5675 5676 5675 5674 5675 5677 5676 5676 5677 5677 5677 5678 5678 5678 5678 5678 5679 5680 5680 5680 5680 5680 5680 5680 5680 5680 5681 5681 5681 5682 5682 5683 5682 5682 5683 5683 5683 5683 5684 5684 5684 5685 5685 5685 5685 5685
5639 5640 5641 5642 5642 5643 5644 5645 5646 5647 5648 5649 5650 5651 5651 5652 5653 5654 5654 5655 5656 5656 5657 5658 5658 5659 5659 5660 5661 5662 5663 5664 5664 5665 5667 5668 5669 5670 5670 5670 5670 5669 5667 5668 5670 5670 5671 5671 5671 5671 5672 5672 5673 5672 5672 5672 5673 5674 5674 5674 5674 5674 5674 5674 5674 5674 5675 5675 5676 5676 5676 5676 5676 5676 5676 5677 5677 5677 5677 5678 5678 5679 5679 5679 5678
5631 5632 5633 5635 5635 5636 5637 5638 5639 5640 5640 5641 5642 5643 5644 5645 5646 5646 5647 5647 5648 5648 5649 5650 5651 5651 5652 5652 5653 5654 5655 5656 5657 5658 5660 5661 5662 5663 5663 5663 5663 5662 5661 5662 5663 5664 5665 5664 5664 5665 5666 5666 5666 5666 5666 5666 5667 5668 5668 5668 5668 5668 5668 5668 5668 5668 5669 5669 5670 5670 5670 5670 5669 5669 5669 5670 5670 5671 5671 5671 5672 5672 5672 5672 5672
5624 5625 5626 5627 5628 5629 5630 5630 5631 5632 5633 5633 5634 5635 5636 5637 5638 5639 5639 5640 5640 5641 5641 5642 5643 5643 5644 5644 5645 5647 5648 5649 5649 5651 5653 5654 5655 5655 5655 5656 5656 5656 5655 5656 5657 5658 5658 5658 5658 5659 5659 5658 5659 5659 5660 5660 5660 5661 5661 5661 5661 5661 5661 5661 5661 5662 5662 5662 5662 5663 5663 5663 5663 5663 5663 5662 5663 5664 5665 5665 5665 5665 5665 5665 5665
5616 5617 5619 5620 5621 5622 5622 5623 5623 5624 5625 5625 5626 5627 5628 5629 5630 5631 5631 5631 5632 5633 5633 5633 5634 5634 5635 5636 5638 5640 5641 5641 5641 5643 5645 5646 5647 5648 5648 5649 5649 5649 5649 5649 5649 5650 5651 5652 5652 5652 5651 5651 5652 5652 5653 5653 5654 5654 5654 5655 5655 5655 5655 5655 5655 5655 5655 5655 5655 5655 5656 5656 5656 5656 5656 5655 5656 5657 5658 5659 5659 5659 5658 5658 5657
5608 5610 5611 5612 5613 5614 5614 5614 5615 5616 5617 5617 5618 5619 5620 5622 5622 5623 5623 5624 5624 5625 5624 5624 5624 5624 5625 5627 5629 5631 5633 5634 5634 5635 5636 5638 5640 5641 5641 5641 5641 5642 5642 5642 5642 5643 5644 5645 5645 5644 5644 5644 5645 5646 5646 5646 5647 5647 5647 5648 5648 5648 5648 5648 5648 5648 5648 5648 5648 5648 5648 5649 5649 5649 5649 5648 5649 5649 5650 5651 5651 5651 5651 5650 5650
5600 5602 5603 5604 5604 5605 5605 5606 5607 5607 5608 5609 5610 5611 5613 5614 5614 5615 5615 5616 5616 5617 5616 5615 5615 5616 5617 5619 5620 5622 5623 5625 5626 5627 5628 5630 5631 5632 5634 5634 5634 5635 5635 5635 5635 5636 5637 5637 5637 5637 5638 5638 5639 5639 5639 5639 5639 5640 5640 5640 5641 5641 5641 5641 5641 5640 5640 5640 5641 5641 5641 5641 5641 5641 5641 5641 5641 5641 5642 5643 5643 5644 5643 5643 5643
5593 5593 5594 5595 5596 5596 5597 5598 5598 5599 5599 5600 5602 5603 5605 5606 5607 5607 5607 5608 5608 5607 5606 5606 5607 5609 5610 5611 5612 5613 5614 5616 5617 5618 5620 5621 5622 5624 5625 5626 5627 5628 5627 5627 5628 5629 5630 5629 5628 5629 5631 5631 5631 5632 5632 5632 5632 5632 5633 5634 5633 5633 5634 5633 5633 5633 5633 5633 5633 5633 5632 5632 5633 5633 5633 5633 5633 5633 5634 5634 5635 5635 5636 5636 5635
5585 5585 5586 5587 5587 5588 5589 5590 5590 5591 5591 5592 5594 5596 5597 5598 5599 5598 5600 5600 5599 5597 5597 5599 5600 5601 5602 5603 5604 5605 5606 5607 5609 5610 5611 5613 5614 5615 5616 5618 5619 5620 5620 5620 5621 5622 5622 5621 5622 5622 5623 5623 5624 5625 5625 5625 5624 5624 5625 5626 5627 5626 5626 5626 5626 5626 5626 5626 5625 5625 5624 5624 5624 5624 5624 5624 5624 5624 5625 5626 5626 5627 5627 5627 5625
5577 5577 5578 5579 5579 5580 5581 5582 5582 5583 5584 5585 5587 5588 5589 5590 5590 5591 5592 5591 5589 5589 5590 5592 5592 5593 5593 5594 5595 5597 5598 5599 5600 5602 5603 5604 5606 5607 5608 5609 5610 5612 5612 5613 5613 5613 5614 5614 5615 5616 5616 5616 5617 5617 5617 5617 5617 5616 5616 5617 5619 5619 5619 5619 5619 5619 5619 5619 5618 5618 5617 5617 5616 5616 5616 5616 5616 5616 5616 5617 5618 5618 5618 5617 5615
5570 5570 5570 5571 5572 5573 5573 5574 5575 5576 5577 5578 5579 5580 5581 5582 5582 5583 5583 5581 5580 5581 5583 5584 5584 5585 5585 5586 5587 5588 5590 5591 5592 5594 5595 5596 5598 5600 5600 5601 5603 5604 5605 5605 5605 5605 5606 5607 5608 5608 5608 5609 5609 5609 5609 5609 5609 5609 5609 5609 5610 5611 5611 5612 5612 5612 5612 5612 5611 5611 5611 5610 5609 5609 5608 5608 5608 5608 5608 5609 5609 5609 5609 5607 5606
5563 5563 5563 5563 5564 5565 5566 5567 5568 5568 5569 5569 5570 5571 5572 5573 5574 5575 5574 5573 5573 5574 5575 5576 5576 5576 5577 5577 5579 5580 5582 5583 5584 5585 5587 5588 5591 5592 5593 5595 5596 5596 5596 5597 5597 5598 5599 5599 5600 5600 5601 5601 5602 5602 5602 5602 5602 5602 5602 5602 5603 5603 5603 5604 5605 5605 5604 5603 5603 5603 5603 5602 5602 5601 5601 5601 5601 5600 5600 5600 5600 5600 5599 5598 5596
5555 5556 5556 5556 5557 5558 5559 5560 5560 5560 5561 5561 5561 5562 5563 5564 5565 5566 5565 5565 5566 5567 5567 5567 5568 5568 5568 5569 5570 5572 5574 5575 5576 5578 5579 5581 5583 5586 5587 5588 5588 5588 5589 5589 5590 5590 5591 5592 5592 5593 5594 5594 5595 5595 5595 5596 5596 5596 5595 5595 5595 5596 5596 5596 5597 5597 5596 5595 5595 5594 5594 5593 5593 5593 5593 5592 5592 5592 5591 5591 5591 5590 5589 5588 5586
5549 5549 5549 5548 5549 5550 5551 5552 5552 5552 5552 5552 5552 5553 5554 5555 5557 5556 5556 5557 5558 5558 5558 5558 5559 5559 5559 5560 5562 5563 5565 5567 5569 5570 5572 5574 5576 5579 5579 5579 5580 5581 5582 5582 5582 5584 5585 5586 5587 5587 5588 5589 5589 5589 5589 5589 5589 5589 5589 5589 5589 5589 5588 5589 5589 5589 5588 5587 5587 5586 5585 5585 5584 5584 5584 5584 5583 5583 5582 5582 5581 5580 5579 5578 5576
5541 5541 5541 5541 5542 5543 5543 5543 5544 5544 5543 5543 5543 5544 5545 5547 5548 5547 5547 5548 5549 5548 5548 5548 5549 5550 5550 5551 5553 5554 5556 5559 5561 5562 5564 5567 5570 5572 5572 5573 5574 5575 5576 5576 5577 5579 5580 5581 5582 5582 5583 5583 5583 5582 5582 5582 5581 5581 5581 5581 5581 5581 5581 5581 5581 5581 5580 5579 5579 5578 5577 5577 5576 5576 5576 5575 5575 5574 5573 5572 5571 5569 5568 5566 5564
5532 5532 5532 5532 5533 5534 5535 5535 5536 5536 5535 5534 5535 5535 5537 5538 5538 5537 5538 5539 5538 5538 5538 5538 5539 5540 5540 5542 5543 5545 5547 5550 5552 5554 5557 5560 5563 5565 5566 5568 5570 5571 5571 5572 5573 5575 5576 5577 5577 5577 5577 5577 5577 5576 5576 5575 5575 5574 5573 5573 5574 5574 5574 5573 5573 5573 5573 5572 5571 5570 5569 5569 5568 5568 5567 5566 5566 5565 5563 5562 5560 5558 5556 5554 5552
5523 5523 5522 5522 5523 5524 5525 5526 5526 5527 5525 5525 5526 5527 5528 5528 5529 5529 5528 5528 5527 5528 5528 5529 5529 5530 5531 5533 5534 5536 5539 5541 5543 5546 5549 5552 5554 5557 5560 5563 5565 5566 5566 5567 5568 5570 5572 5572 5573 5573 5572 5572 5572 5571 5570 5569 5569 5568 5567 5566 5566 5566 5566 5566 5565 5565 5565 5564 5563 5562 5561 5560 5559 5559 5558 5556 5555 5554 5553 5551 5549 5546 5544 5542 5541
5513 5513 5513 5512 5513 5514 5515 5516 5517 5517 5515 5515 5517 5518 5518 5519 5519 5519 5518 5517 5518 5519 5520 5521 5521 5523 5524 5526 5527 5530 5533 5535 5537 5539 5542 5544 5547 5551 5554 5558 5559 5560 5561 5563 5565 5567 5568 5568 5568 5568 5568 5567 5567 5566 5565 5564 5564 5563 5561 5560 5560 5559 5559 5558 5558 5557 5556 5555 5554 5553 5552 5551 5550 5549 5548 5546 5545 5543 5541 5539 5537 5535 5533 5531 5529
5504 5503 5503 5503 5503 5504 5505 5506 5507 5507 5506 5506 5508 5509 5508 5508 5509 5508 5508 5509 5510 5512 5513 5515 5516 5517 5519 5521 5523 5525 5528 5530 5532 5534 5537 5540 5543 5546 5549 5551 5553 5555 5557 5559 5561 5563 5564 5564 5564 5563 5563 5562 5562 5561 5560 5559 5558 5557 5556 5555 5554 5553 5552 5552 5551 5550 5548 5547 5546 5545 5543 5542 5540 5539 5538 5536 5534 5532 5530 5528 5526 5523 5522 5520 5518
5494 5494 5494 5494 5494 5495 5496 5497 5498 5499 5498 5498 5499 5499 5499 5499 5500 5500 5501 5502 5504 5506 5508 5510 5512 5513 5515 5517 5519 5521 5524 5526 5528 5530 5533 5536 5539 5542 5544 5547 5549 5552 5555 5557 5558 5560 5560 5559 5559 5559 5558 5558 5557 5556 5555 5554 5553 5552 5551 5550 5549 5548 5546 5545 5544 5542 5541 5539 5538 5536 5534 5533 5531 5530 5529 5527 5525 5522 5520 5518 5515 5513 5511 5509 5508
5485 5485 5485 5486 5486 5486 5488 5490 5491 5491 5491 5491 5492 5492 5493 5493 5493 5495 5496 5497 5499 5502 5504 5506 5508 5510 5512 5514 5516 5518 5520 5523 5525 5527 5530 5533 5537 5539 5542 5545 5548 5550 5552 5554 5555 5556 5556 5555 5555 5554 5554 5553 5552 5552 5551 5550 5549 5547 5546 5545 5543 5542 5540 5538 5537 5535 5533 5531 5529 5528 5526 5524 5523 5521 5520 5518 5516 5513 5510 5508 5506 5504 5502 5500 5499